[[{"header":{"parameterUnit":"m.s-1","parameterCategory":1,"la1":30.2991,"la2":30.254,"lo1":-89.0895,"lo2":-89.0444,"dy":0.0017,"dx":0.0017,"nx":28,"ny":28,"refTime":"2025-02-09T09:00:00:Z","depth":0,"parameterNumber":2,"parameterNumberName":"U-component_of_WINDS"},"data":[0,0,0,0,0,0,0,0,0,0,0,0,0,0,0,0,0,0,0,0,0,0,0,0,0,0,0,0,0,0,0,0,0,0,0,0,0,0,0,0,0,0,0,0,0,0,0,0,0,0,0,0,0,0,0,0,0,0,-1.2169,-1.2169,0,-1.2153,-1.2153,-1.2152,-1.2088,-1.2086,-1.2085,-1.2083,-1.2067,-1.2068,-1.2069,0,0,0,0,0,0,0,0,0,0,0,0,0,-1.2147,-1.2148,-1.2169,-1.2169,-1.2169,-1.2153,-1.2153,-1.2152,-1.2088,-1.2086,-1.2084,-1.2083,-1.2067,-1.2068,-1.2069,0,0,0,0,0,0,0,0,0,0,0,0,0,-1.2147,-1.2148,-1.2169,-1.2135,-1.2132,-1.2153,-1.2153,-1.2152,-1.2088,-1.2086,-1.2084,-1.2082,-1.2067,-1.2068,-1.2069,-1.2123,0,0,-1.2074,-1.2075,0,0,0,0,0,0,0,0,-1.2147,-1.2147,-1.214,-1.2137,-1.2134,-1.212,-1.2139,-1.2143,-1.2089,-1.2105,-1.2083,-1.2081,-1.2087,-1.2086,-1.2088,-1.2122,-1.2122,-1.2074,-1.2075,-1.2076,-1.2076,0,0,0,0,0,0,0,-1.2147,-1.2148,-1.2163,-1.214,-1.2136,-1.2121,-1.2118,-1.2139,-1.2109,-1.2103,-1.2098,-1.2097,-1.2085,-1.2087,-1.2087,-1.2122,-1.2074,-1.2075,-1.2076,-1.2077,-1.2201,-1.2203,0,0,0,0,0,0,-1.2152,-1.2148,-1.2163,-1.2162,-1.2135,-1.2123,-1.212,-1.2127,-1.2108,-1.2103,-1.2099,-1.2094,-1.2086,-1.2086,-1.2087,-1.2149,-1.2076,-1.2077,-1.2078,-1.2198,-1.2201,-1.2204,0,0,0,0,0,0,-1.2151,-1.2153,-1.2164,-1.2154,-1.2154,-1.2126,-1.2134,-1.2127,-1.213,-1.2105,-1.2099,-1.2107,-1.2084,-1.2085,-1.2115,-1.2148,-1.2078,-1.2079,-1.2195,-1.2199,-1.2203,-1.2274,0,0,0,0,0,0,-1.2151,-1.2154,-1.2173,-1.2155,-1.2155,-1.2192,-1.2136,-1.2129,-1.2132,-1.2126,-1.2111,-1.2107,-1.2082,-1.2113,-1.2116,-1.2148,-1.208,-1.2192,-1.2197,-1.2201,-1.2269,-1.228,-1.2289,0,0,0,0,0,-1.215,-1.2194,-1.2175,-1.2177,-1.2179,-1.2194,-1.2194,-1.2165,-1.2135,-1.2155,-1.2139,-1.2107,-1.2144,-1.2117,-1.212,-1.2153,-1.219,-1.2196,-1.2201,-1.2264,-1.2278,-1.2289,0,0,0,0,0,0,-1.2217,-1.2191,-1.2169,-1.2208,-1.2204,-1.2183,-1.2207,-1.218,-1.2184,-1.2178,-1.2142,-1.2139,-1.2175,-1.2167,-1.2137,-1.2205,-1.2162,-1.2168,-1.2208,-1.2221,-1.2231,-1.2232,-1.2081,0,0,0,0,0,-1.2236,-1.225,-1.2227,-1.2264,-1.2263,-1.2236,-1.2241,-1.2219,-1.2213,-1.2211,-1.2198,-1.2194,-1.2205,-1.2212,-1.2221,-1.2267,-1.2264,-1.2292,-1.2302,-1.2311,-1.2317,-1.2342,-1.2354,-1.2222,-1.2222,-1.2222,0,0,-1.2276,-1.2263,-1.2275,-1.2277,-1.2271,-1.2287,-1.2234,-1.2253,-1.2266,-1.2214,-1.2242,-1.2233,-1.2226,-1.2265,-1.2282,-1.2259,-1.2353,-1.2318,-1.2325,-1.2326,-1.2349,-1.2361,-1.2373,-1.2225,-1.2225,-1.2224,0,0,-1.2357,-1.2348,-1.2379,-1.2374,-1.2366,-1.2348,-1.2355,-1.2339,-1.2331,-1.2358,-1.2321,-1.2335,-1.2354,-1.2351,-1.2352,-1.2434,-1.2405,-1.2438,-1.2491,-1.2516,-1.2527,-1.2536,-1.2566,-1.2577,-1.2444,-1.2444,-1.2444,0,-1.2407,-1.243,-1.2398,-1.242,-1.2422,-1.2377,-1.2408,-1.2405,-1.2401,-1.2404,-1.2379,-1.2403,-1.2395,-1.2433,-1.2453,-1.2456,-1.2464,-1.2439,-1.2528,-1.2537,-1.2545,-1.2573,-1.2584,-1.2448,-1.2447,-1.2447,-1.2447,0,-1.2493,-1.2509,-1.2535,-1.2531,-1.2537,-1.2563,-1.2536,-1.2546,-1.2524,-1.2509,-1.2538,-1.2528,-1.2534,-1.2541,-1.252,-1.2577,-1.2564,-1.2534,-1.249,-1.2562,-1.2588,-1.2598,-1.2454,-1.2452,-1.2451,-1.245,0,0,-1.2614,-1.2594,-1.2604,-1.2602,-1.2591,-1.2603,-1.2628,-1.2634,-1.2644,-1.2642,-1.2663,-1.2681,-1.2654,-1.2655,-1.2633,-1.2655,-1.2722,-1.2623,-1.2622,-1.2642,-1.2786,-1.2809,-1.2822,-1.2703,-1.2705,-1.2706,-1.2787,0,-1.2691,-1.2732,-1.2705,-1.2751,-1.2766,-1.2724,-1.2746,-1.2742,-1.2729,-1.2741,-1.2727,-1.274,-1.2703,-1.2704,-1.2724,-1.271,-1.2751,-1.2704,-1.2722,-1.2723,-1.2725,-1.2835,-1.2858,-1.2935,-1.2797,-1.2798,-1.2799,0,-1.2786,-1.279,-1.2838,-1.2824,-1.283,-1.285,-1.2854,-1.2866,-1.2861,-1.285,-1.2853,-1.2825,-1.285,-1.2807,-1.2841,-1.281,-1.2816,-1.2811,-1.2813,-1.2813,-1.2766,-1.2839,-1.2958,-1.297,-1.2815,-1.2814,-1.2813,0,-1.2871,-1.2888,-1.2918,-1.2918,-1.2904,-1.2919,-1.2914,-1.2907,-1.2913,-1.2916,-1.292,-1.2927,-1.2931,-1.2937,-1.2913,-1.2883,-1.295,-1.2905,-1.2943,-1.2944,-1.2958,-1.2958,-1.3081,-1.2962,-1.2962,-1.2962,-1.2962,0,-1.296,-1.2991,-1.2956,-1.2975,-1.3009,-1.2978,-1.3013,-1.3003,-1.2998,-1.3015,-1.2979,-1.2996,-1.2963,-1.2977,-1.2958,-1.299,-1.2992,-1.2984,-1.2979,-1.2987,-1.2989,-1.2991,-1.2985,-1.2965,-1.2964,-1.2964,-1.2963,0,-1.306,-1.3038,-1.3069,-1.3053,-1.305,-1.3076,-1.3062,-1.3079,-1.3065,-1.3087,-1.309,-1.3067,-1.3082,-1.3059,-1.307,-1.3058,-1.3102,-1.3089,-1.3104,-1.31,-1.3139,-1.3136,-1.3268,-1.3284,-1.3155,-1.3157,-1.3158,0,-1.3119,-1.3142,-1.3128,-1.3137,-1.3134,-1.3149,-1.3155,-1.3126,-1.3134,-1.3131,-1.3149,-1.3161,-1.3168,-1.3194,-1.3179,-1.3188,-1.3175,-1.322,-1.3176,-1.3184,-1.3176,-1.3175,-1.3178,-1.323,-1.3231,-1.3232,-1.3233,0,-1.3225,-1.3213,-1.3223,-1.323,-1.3238,-1.3242,-1.3243,-1.3253,-1.3222,-1.3233,-1.3248,-1.3254,-1.3266,-1.3279,-1.3285,-1.328,-1.3252,-1.3248,-1.3257,-1.3266,-1.3274,-1.3271,-1.3129,-1.3245,-1.3244,-1.3243,-1.3242,-1.3242,-1.3306,-1.3325,-1.3319,-1.3332,-1.333,-1.3332,-1.3348,-1.3336,-1.3348,-1.3355,-1.3338,-1.3357,-1.3353,-1.3358,-1.3357,-1.3372,-1.3352,-1.3365,-1.3368,-1.3372,-1.3379,-1.3272,-1.3373,-1.3372,-1.3372,-1.3372,-1.3371,0,-1.3411,-1.3406,-1.3418,-1.3421,-1.3432,-1.3405,-1.3405,-1.3416,-1.3433,-1.3432,-1.344,-1.3458,-1.347,-1.3457,-1.3466,-1.3481,-1.3469,-1.3485,-1.3484,-1.3483,-1.3396,-1.3387,-1.3495,-1.3495,-1.3495,-1.3495,-1.3495,-1.3495,-1.3467,-1.3498,-1.3486,-1.3517,-1.3511,-1.3529,-1.3532,-1.3535,-1.3533,-1.3555,-1.3565,-1.3556,-1.355,-1.3559,-1.357,-1.3565,-1.3571,-1.3592,-1.3583,-1.3501,-1.3489,-1.3478,-1.3469,-1.3593,-1.3593,-1.3669,-1.367,-1.3671]},{"header":{"parameterUnit":"m.s-1","parameterCategory":1,"la1":30.2991,"la2":30.254,"lo1":-89.0895,"lo2":-89.0444,"dy":0.0017,"dx":0.0017,"nx":28,"ny":28,"refTime":"2025-02-09T09:00:00:Z","depth":0,"parameterNumber":3,"parameterNumberName":"V-component_of_WINDS"},"data":[0,0,0,0,0,0,0,0,0,0,0,0,0,0,0,0,0,0,0,0,0,0,0,0,0,0,0,0,0,0,0,0,0,0,0,0,0,0,0,0,0,0,0,0,0,0,0,0,0,0,0,0,0,0,0,0,0,0,0.5202,0.5201,0,0.5168,0.5168,0.5167,0.5226,0.5228,0.523,0.5232,0.5195,0.5192,0.5189,0,0,0,0,0,0,0,0,0,0,0,0,0,0.5315,0.5313,0.5202,0.5201,0.5201,0.5168,0.5168,0.5167,0.5226,0.5228,0.5231,0.5233,0.5196,0.5192,0.5189,0,0,0,0,0,0,0,0,0,0,0,0,0,0.5272,0.5312,0.5202,0.5226,0.5228,0.5168,0.5168,0.5167,0.5225,0.5228,0.5231,0.5234,0.5197,0.5193,0.5188,0.5102,0,0,0.5175,0.5174,0,0,0,0,0,0,0,0,0.5274,0.5268,0.5223,0.5224,0.5226,0.5205,0.5194,0.5145,0.5225,0.5226,0.5232,0.5236,0.5195,0.5191,0.5178,0.5101,0.5099,0.5175,0.5172,0.5171,0.5169,0,0,0,0,0,0,0,0.5277,0.527,0.5188,0.5222,0.5224,0.5238,0.5236,0.5185,0.5194,0.5226,0.5231,0.5226,0.5197,0.5182,0.5178,0.5098,0.5175,0.5171,0.5169,0.5167,0.495,0.4947,0,0,0,0,0,0,0.5278,0.5272,0.5189,0.5187,0.5258,0.5234,0.5231,0.5208,0.5195,0.5196,0.5223,0.5229,0.5188,0.5183,0.5177,0.5076,0.5171,0.5167,0.5164,0.4954,0.495,0.4946,0,0,0,0,0,0,0.528,0.527,0.5191,0.5231,0.5222,0.5229,0.5203,0.5206,0.5192,0.5193,0.5195,0.5207,0.519,0.5183,0.5121,0.5076,0.5165,0.5161,0.4957,0.4952,0.4948,0.4874,0,0,0,0,0,0,0.5283,0.527,0.5237,0.5229,0.5219,0.5135,0.52,0.5203,0.5185,0.5191,0.5178,0.5179,0.5192,0.5127,0.5117,0.5072,0.5157,0.4961,0.4955,0.4949,0.488,0.4867,0.4856,0,0,0,0,0,0.5287,0.5217,0.5235,0.5225,0.5179,0.5133,0.5127,0.5145,0.5181,0.5148,0.5149,0.5179,0.5083,0.512,0.5109,0.5062,0.4964,0.4957,0.495,0.4886,0.487,0.4856,0,0,0,0,0,0,0.5217,0.5216,0.5237,0.5162,0.5147,0.5143,0.5102,0.5127,0.51,0.5107,0.513,0.5126,0.506,0.5055,0.5097,0.4979,0.503,0.502,0.4985,0.4969,0.4957,0.4959,0.5154,0,0,0,0,0,0.5194,0.5157,0.5158,0.5092,0.5084,0.5094,0.5074,0.509,0.5075,0.5068,0.5065,0.5048,0.5015,0.4992,0.4961,0.488,0.4879,0.4842,0.483,0.482,0.4811,0.477,0.4754,0.4923,0.4923,0.4923,0,0,0.5144,0.5139,0.5114,0.5078,0.5068,0.503,0.5088,0.5044,0.5016,0.5061,0.5003,0.5,0.4984,0.4913,0.4881,0.4906,0.4765,0.4811,0.4803,0.4799,0.4761,0.4745,0.473,0.4918,0.4919,0.4919,0,0,0.5034,0.5026,0.4971,0.4961,0.4946,0.4954,0.4941,0.4933,0.4933,0.4875,0.4909,0.4876,0.4817,0.4804,0.479,0.4678,0.4704,0.4667,0.4602,0.4561,0.4548,0.4536,0.4497,0.4482,0.4658,0.4658,0.4658,0,0.4973,0.4917,0.4939,0.4894,0.4877,0.4919,0.4864,0.4853,0.4828,0.4815,0.4844,0.4773,0.4764,0.4692,0.4665,0.4651,0.4637,0.4668,0.4548,0.4537,0.4526,0.4489,0.4474,0.4653,0.4654,0.4654,0.4655,0,0.4844,0.4804,0.4762,0.4739,0.4718,0.4667,0.4682,0.4658,0.4676,0.4681,0.4622,0.4614,0.4583,0.4567,0.4583,0.4497,0.4513,0.4545,0.4596,0.4505,0.4471,0.4456,0.4647,0.4649,0.465,0.4651,0,0,0.4686,0.4679,0.4663,0.4654,0.4642,0.4611,0.4564,0.4535,0.4514,0.4496,0.4456,0.4407,0.4437,0.4421,0.4436,0.4401,0.4313,0.4437,0.4437,0.4414,0.4219,0.4195,0.4178,0.4332,0.4329,0.4327,0.422,0,0.4577,0.4496,0.4516,0.4435,0.44,0.444,0.4399,0.4387,0.439,0.4361,0.4365,0.4329,0.4371,0.4362,0.4329,0.4331,0.4274,0.4339,0.4295,0.4293,0.4297,0.4159,0.4133,0.4033,0.4207,0.4204,0.4203,0,0.4438,0.4417,0.4333,0.4329,0.4315,0.4277,0.4253,0.4224,0.4212,0.4218,0.4201,0.4224,0.4177,0.423,0.4165,0.4209,0.4193,0.4191,0.4188,0.4184,0.4242,0.4152,0.4001,0.3986,0.4181,0.4183,0.4185,0,0.4333,0.4283,0.4227,0.4218,0.4211,0.4184,0.418,0.4171,0.4153,0.4132,0.4121,0.4094,0.4079,0.4058,0.4073,0.411,0.4007,0.406,0.401,0.4009,0.3985,0.3987,0.383,0.3975,0.3975,0.3976,0.3976,0,0.4208,0.4155,0.418,0.4145,0.4087,0.4111,0.4054,0.4054,0.4046,0.4012,0.4046,0.4013,0.4036,0.4005,0.4017,0.3963,0.3956,0.3959,0.3962,0.3955,0.3955,0.3944,0.3951,0.3972,0.3973,0.3973,0.3974,0,0.408,0.4094,0.4036,0.4035,0.4034,0.3992,0.3991,0.3959,0.3967,0.3924,0.3915,0.3926,0.3892,0.3906,0.3869,0.3877,0.3808,0.3821,0.3812,0.3815,0.3764,0.3769,0.3595,0.3574,0.3732,0.3731,0.373,0,0.3999,0.396,0.3956,0.3937,0.3931,0.3898,0.3881,0.3904,0.3884,0.3869,0.3838,0.3808,0.3784,0.3728,0.3733,0.3705,0.3718,0.3659,0.3714,0.3709,0.3717,0.3719,0.3716,0.3647,0.3646,0.3644,0.3643,0,0.3854,0.3864,0.3838,0.3815,0.3794,0.3776,0.3761,0.3743,0.3766,0.3742,0.3709,0.3691,0.3655,0.3624,0.36,0.3596,0.3623,0.3626,0.3613,0.3605,0.3602,0.3603,0.3782,0.363,0.3631,0.3632,0.3633,0.3633,0.3748,0.3715,0.3708,0.3679,0.3671,0.3657,0.3627,0.3632,0.3605,0.3578,0.3593,0.3554,0.3545,0.3517,0.3509,0.3479,0.3502,0.3482,0.3478,0.3472,0.3466,0.3607,0.3474,0.3475,0.3475,0.3476,0.3476,0,0.3605,0.3603,0.3576,0.3556,0.3533,0.3562,0.3548,0.3526,0.3492,0.3482,0.3459,0.3421,0.3392,0.3396,0.3369,0.3344,0.3356,0.3337,0.3338,0.3337,0.3447,0.3461,0.3328,0.3328,0.3328,0.3328,0.3328,0.3328,0.3528,0.3475,0.3485,0.3428,0.3427,0.339,0.338,0.3367,0.336,0.3316,0.3293,0.3296,0.3291,0.3265,0.324,0.3242,0.3231,0.3206,0.3212,0.3314,0.3329,0.3343,0.3357,0.3204,0.3203,0.3106,0.3105,0.3104]}]]